AFL1010 UNKL-UIII

Flight info

Callsign AFL1010
Flight time 1h 20m
Altitude 37000
Route ATREG2F ATREG R497 RO A817 RUSAM G490 NH NH4A
Aircraft A20N/M-SDE2E3FGHIRWXY/LB1

Departure

Time 2026-04-27 14:31
Airport Krasnoyarsk International Airport (UNKL)

Arrival

Time 2026-04-27 15:51
Airport Irkutsk International Airport (UIII)
Time Latitude Longitude Altitude Speed Heading
2026-04-27 14:06 56.17971 92.48436 951 ft 0 kts 22°
2026-04-27 14:24 56.17949 92.48419 949 ft 7 kts 22°
2026-04-27 14:24 56.17905 92.48373 949 ft 5 kts 62°
2026-04-27 14:24 56.17902 92.48319 948 ft 0 kts 114°
2026-04-27 14:26 56.17900 92.48326 949 ft 2 kts 112°
2026-04-27 14:26 56.17888 92.48380 951 ft 7 kts 111°
2026-04-27 14:27 56.17847 92.48451 951 ft 10 kts 168°
2026-04-27 14:27 56.17768 92.48417 951 ft 14 kts 187°
2026-04-27 14:27 56.17704 92.48549 951 ft 17 kts 112°
2026-04-27 14:27 56.17654 92.48768 951 ft 21 kts 112°
2026-04-27 14:28 56.17588 92.49028 951 ft 25 kts 113°
2026-04-27 14:28 56.17517 92.49327 951 ft 28 kts 113°
2026-04-27 14:28 56.17439 92.49660 951 ft 30 kts 113°
2026-04-27 14:28 56.17352 92.50022 951 ft 32 kts 113°
2026-04-27 14:29 56.17274 92.50343 951 ft 21 kts 114°
2026-04-27 14:29 56.17216 92.50418 950 ft 6 kts 189°
2026-04-27 14:29 56.17166 92.50386 951 ft 0 kts 200°
2026-04-27 14:29 56.17163 92.50384 951 ft 2 kts 201°
2026-04-27 14:30 56.17132 92.50361 950 ft 7 kts 203°
2026-04-27 14:30 56.17081 92.50283 949 ft 12 kts 245°
2026-04-27 14:30 56.17103 92.50119 949 ft 23 kts 292°
2026-04-27 14:30 56.17290 92.49318 949 ft 115 kts 293°
2026-04-27 14:31 56.17682 92.47604 1178 ft 168 kts 291°
2026-04-27 14:31 56.18142 92.45646 2092 ft 176 kts 293°
2026-04-27 14:31 56.18647 92.43582 3189 ft 188 kts 293°
2026-04-27 14:31 56.19199 92.41315 4138 ft 208 kts 293°
2026-04-27 14:32 56.19599 92.38656 5082 ft 231 kts 271°
2026-04-27 14:32 56.19198 92.35788 5975 ft 253 kts 242°
2026-04-27 14:32 56.17964 92.33465 7108 ft 264 kts 213°
2026-04-27 14:32 56.16223 92.32482 8476 ft 268 kts 187°
2026-04-27 14:33 56.14360 92.33040 9691 ft 281 kts 162°
2026-04-27 14:33 56.12711 92.35112 10586 ft 304 kts 138°
2026-04-27 14:33 56.11534 92.38489 11051 ft 340 kts 115°
2026-04-27 14:33 56.10943 92.42785 11447 ft 367 kts 105°
2026-04-27 14:34 56.10299 92.47248 12232 ft 372 kts 113°
2026-04-27 14:34 56.09311 92.51540 13110 ft 373 kts 122°
2026-04-27 14:34 56.08051 92.55602 13983 ft 375 kts 128°
2026-04-27 14:34 56.06627 92.59526 14843 ft 375 kts 131°
2026-04-27 14:35 56.05137 92.63367 15714 ft 377 kts 132°
2026-04-27 14:35 56.03611 92.67213 16551 ft 380 kts 133°
2026-04-27 14:35 56.02072 92.71081 17376 ft 384 kts 133°
2026-04-27 14:35 56.00520 92.74989 18151 ft 388 kts 133°
2026-04-27 14:36 55.98950 92.78952 18792 ft 392 kts 133°
2026-04-27 14:36 55.97392 92.82888 19029 ft 394 kts 133°
2026-04-27 14:36 55.95806 92.86895 19170 ft 398 kts 133°
2026-04-27 14:36 55.94206 92.90930 19859 ft 398 kts 133°
2026-04-27 14:37 55.92606 92.94967 20619 ft 400 kts 133°
2026-04-27 14:37 55.90984 92.99041 21280 ft 405 kts 133°
2026-04-27 14:37 55.89347 93.03148 21962 ft 409 kts 133°
2026-04-27 14:37 55.88227 93.05955 22415 ft 411 kts 133°
2026-04-27 14:38 55.86016 93.11487 23287 ft 417 kts 133°
2026-04-27 14:38 55.84326 93.15709 23898 ft 420 kts 133°
2026-04-27 14:38 55.82618 93.19967 24430 ft 424 kts 133°
2026-04-27 14:38 55.80896 93.24255 24962 ft 427 kts 133°
2026-04-27 14:39 55.79159 93.28570 25471 ft 431 kts 133°
2026-04-27 14:39 55.77407 93.32917 25981 ft 434 kts 133°
2026-04-27 14:39 55.75641 93.37292 26461 ft 438 kts 133°
2026-04-27 14:39 55.73941 93.41842 26943 ft 447 kts 126°
2026-04-27 14:40 55.72411 93.46680 27435 ft 451 kts 126°
2026-04-27 14:40 55.70893 93.51509 27899 ft 454 kts 126°
2026-04-27 14:40 55.69346 93.56419 28354 ft 457 kts 126°
2026-04-27 14:40 55.67787 93.61343 28790 ft 460 kts 126°
2026-04-27 14:41 55.66211 93.66298 29218 ft 463 kts 126°
2026-04-27 14:41 55.64624 93.71273 29625 ft 465 kts 126°
2026-04-27 14:41 55.63023 93.76279 30040 ft 468 kts 126°
2026-04-27 14:41 55.61411 93.81308 30394 ft 471 kts 126°
2026-04-27 14:42 55.59784 93.86372 30754 ft 474 kts 126°
2026-04-27 14:42 55.58703 93.89733 30997 ft 475 kts 126°
2026-04-27 14:42 55.57063 93.94820 31384 ft 477 kts 126°
2026-04-27 14:42 55.55420 93.99908 31838 ft 477 kts 126°
2026-04-27 14:43 55.53779 94.04983 32320 ft 476 kts 126°
2026-04-27 14:43 55.52134 94.10055 32793 ft 475 kts 126°
2026-04-27 14:43 55.50491 94.15113 33264 ft 474 kts 126°
2026-04-27 14:43 55.48849 94.20154 33723 ft 474 kts 126°
2026-04-27 14:44 55.47204 94.25195 34159 ft 473 kts 126°
2026-04-27 14:44 55.45563 94.30209 34526 ft 472 kts 126°
2026-04-27 14:44 55.43920 94.35218 34874 ft 472 kts 125°
2026-04-27 14:44 55.42279 94.40210 35206 ft 472 kts 125°
2026-04-27 14:45 55.40630 94.45217 35541 ft 472 kts 125°
2026-04-27 14:45 55.38985 94.50202 35852 ft 472 kts 125°
2026-04-27 14:45 55.37338 94.55184 36163 ft 471 kts 125°
2026-04-27 14:45 55.35689 94.60163 36482 ft 471 kts 124°
2026-04-27 14:46 55.34037 94.65140 36789 ft 471 kts 124°
2026-04-27 14:46 55.32382 94.70114 37054 ft 471 kts 124°
2026-04-27 14:46 55.30729 94.75075 37115 ft 470 kts 124°
2026-04-27 14:47 55.27694 94.85158 37112 ft 473 kts 115°
2026-04-27 14:47 55.25888 94.96311 37111 ft 479 kts 102°
2026-04-27 14:48 55.25071 95.07930 37115 ft 480 kts 99°
2026-04-27 14:48 55.23841 95.25364 37105 ft 480 kts 99°
2026-04-27 14:49 55.22998 95.36975 37105 ft 480 kts 99°
2026-04-27 14:49 55.22143 95.48580 37105 ft 480 kts 99°
2026-04-27 14:50 55.21274 95.60215 37258 ft 482 kts 99°
2026-04-27 14:50 55.20836 95.66024 37604 ft 481 kts 99°
2026-04-27 14:50 55.20396 95.71825 37938 ft 479 kts 99°
2026-04-27 14:51 55.19955 95.77596 38250 ft 478 kts 99°
2026-04-27 14:51 55.19512 95.83366 38562 ft 477 kts 99°
2026-04-27 14:51 55.19067 95.89116 38835 ft 476 kts 99°
2026-04-27 14:51 55.18626 95.94780 39035 ft 476 kts 99°
2026-04-27 14:52 55.17726 96.06240 39099 ft 474 kts 99°
2026-04-27 14:52 55.16819 96.17656 39111 ft 474 kts 99°
2026-04-27 14:53 55.15900 96.29071 39093 ft 474 kts 99°
2026-04-27 14:53 55.14970 96.40484 39092 ft 474 kts 99°
2026-04-27 14:54 55.14030 96.51886 39082 ft 474 kts 99°
2026-04-27 14:54 55.13079 96.63285 39085 ft 474 kts 99°
2026-04-27 14:55 55.12118 96.74673 39085 ft 474 kts 99°
2026-04-27 14:55 55.11145 96.86065 39088 ft 474 kts 99°
2026-04-27 14:56 55.10169 96.97375 39092 ft 474 kts 99°
2026-04-27 14:56 55.09178 97.08743 39098 ft 473 kts 99°
2026-04-27 14:57 55.08138 97.20069 39079 ft 471 kts 101°
2026-04-27 14:57 55.07054 97.31322 39082 ft 470 kts 101°
2026-04-27 14:58 55.05968 97.42585 39083 ft 470 kts 100°
2026-04-27 14:58 55.04876 97.53832 39083 ft 470 kts 100°
2026-04-27 14:59 55.03781 97.65007 39083 ft 471 kts 100°
2026-04-27 14:59 55.02667 97.76259 39096 ft 471 kts 101°
2026-04-27 15:00 55.01542 97.87519 39097 ft 472 kts 101°
2026-04-27 15:00 55.00404 97.98788 39101 ft 472 kts 101°
2026-04-27 15:01 54.99259 98.10028 39080 ft 469 kts 101°
2026-04-27 15:01 54.98109 98.21199 39078 ft 469 kts 101°
2026-04-27 15:02 54.96946 98.32397 39085 ft 468 kts 101°
2026-04-27 15:02 54.95777 98.43546 39080 ft 468 kts 101°
2026-04-27 15:03 54.94598 98.54688 39078 ft 468 kts 101°
2026-04-27 15:03 54.93416 98.65752 39081 ft 468 kts 101°
2026-04-27 15:04 54.92217 98.76875 39080 ft 468 kts 101°
2026-04-27 15:04 54.91010 98.87976 39077 ft 467 kts 101°
2026-04-27 15:05 54.89796 98.99044 38865 ft 463 kts 101°
2026-04-27 15:05 54.89190 99.04535 38334 ft 461 kts 101°
2026-04-27 15:05 54.88574 99.10006 37606 ft 462 kts 101°
2026-04-27 15:06 54.87912 99.15467 36842 ft 463 kts 102°
2026-04-27 15:06 54.87233 99.20943 36078 ft 464 kts 102°
2026-04-27 15:06 54.86555 99.26430 35407 ft 464 kts 102°
2026-04-27 15:06 54.85883 99.31892 35151 ft 464 kts 102°
2026-04-27 15:07 54.85131 99.38011 35081 ft 472 kts 102°
2026-04-27 15:07 54.84512 99.43025 35078 ft 472 kts 102°
2026-04-27 15:08 54.83134 99.54139 35075 ft 471 kts 102°
2026-04-27 15:08 54.81754 99.65172 35080 ft 471 kts 102°
2026-04-27 15:09 54.80356 99.76263 35085 ft 470 kts 102°
2026-04-27 15:09 54.78950 99.87328 35085 ft 470 kts 102°
2026-04-27 15:10 54.77534 99.98384 35085 ft 470 kts 102°
2026-04-27 15:10 54.76108 100.09432 35087 ft 470 kts 102°
2026-04-27 15:11 54.74670 100.20485 35087 ft 470 kts 102°
2026-04-27 15:11 54.73225 100.31508 35091 ft 470 kts 102°
2026-04-27 15:12 54.71779 100.42456 35095 ft 470 kts 102°
2026-04-27 15:12 54.70316 100.53452 35094 ft 469 kts 101°
2026-04-27 15:13 54.68843 100.64435 35097 ft 469 kts 101°
2026-04-27 15:13 54.67362 100.75399 35096 ft 468 kts 101°
2026-04-27 15:14 54.65873 100.86344 35099 ft 468 kts 101°
2026-04-27 15:14 54.64374 100.97279 35105 ft 467 kts 101°
2026-04-27 15:15 54.62864 101.08219 35106 ft 467 kts 101°
2026-04-27 15:15 54.61361 101.19022 35110 ft 466 kts 101°
2026-04-27 15:16 54.59838 101.29893 35117 ft 465 kts 101°
2026-04-27 15:16 54.58307 101.40743 35122 ft 465 kts 101°
2026-04-27 15:17 54.56771 101.51559 35124 ft 464 kts 101°
2026-04-27 15:17 54.55226 101.62356 35130 ft 464 kts 101°
2026-04-27 15:18 54.53683 101.73070 35126 ft 463 kts 101°
2026-04-27 15:18 54.52121 101.83836 35123 ft 463 kts 101°
2026-04-27 15:19 54.50551 101.94587 35135 ft 463 kts 101°
2026-04-27 15:19 54.48970 102.05337 35130 ft 463 kts 101°
2026-04-27 15:20 54.47378 102.16088 35139 ft 464 kts 101°
2026-04-27 15:20 54.45776 102.26831 35141 ft 464 kts 101°
2026-04-27 15:21 54.44165 102.37568 35150 ft 464 kts 101°
2026-04-27 15:21 54.42544 102.48296 35151 ft 464 kts 101°
2026-04-27 15:22 54.40913 102.59022 35154 ft 464 kts 101°
2026-04-27 15:22 54.39283 102.69667 35050 ft 464 kts 101°
2026-04-27 15:23 54.38463 102.75016 34814 ft 463 kts 100°
2026-04-27 15:23 54.37641 102.80362 34572 ft 463 kts 100°
2026-04-27 15:23 54.37432 102.81722 34509 ft 463 kts 100°
2026-04-27 15:24 54.37091 102.83952 34411 ft 464 kts 100°
2026-04-27 15:24 54.36273 102.89310 34173 ft 464 kts 100°
2026-04-27 15:24 54.35455 102.94667 33904 ft 464 kts 100°
2026-04-27 15:25 54.34633 103.00038 33631 ft 464 kts 100°
2026-04-27 15:25 54.33813 103.05386 33364 ft 464 kts 100°
2026-04-27 15:25 54.32990 103.10725 33099 ft 464 kts 101°
2026-04-27 15:25 54.31862 103.15945 32832 ft 471 kts 113°
2026-04-27 15:26 54.30110 103.20716 32573 ft 477 kts 126°
2026-04-27 15:26 54.27807 103.24811 32314 ft 481 kts 138°
2026-04-27 15:26 54.25791 103.27313 32122 ft 483 kts 147°
2026-04-27 15:26 54.22766 103.29827 31867 ft 485 kts 159°
2026-04-27 15:27 54.19561 103.31633 31617 ft 485 kts 162°
2026-04-27 15:27 54.16353 103.33382 31359 ft 484 kts 161°
2026-04-27 15:27 54.13177 103.35295 31103 ft 483 kts 159°
2026-04-27 15:27 54.10039 103.37358 30872 ft 483 kts 157°
2026-04-27 15:28 54.07983 103.38771 30698 ft 481 kts 157°
2026-04-27 15:28 54.04896 103.40938 30451 ft 477 kts 156°
2026-04-27 15:28 54.00855 103.43807 30108 ft 474 kts 156°
2026-04-27 15:28 53.97819 103.45963 29817 ft 472 kts 156°
2026-04-27 15:29 53.94801 103.48100 29534 ft 469 kts 156°
2026-04-27 15:29 53.91797 103.50222 29254 ft 467 kts 156°
2026-04-27 15:29 53.88798 103.52335 28967 ft 465 kts 156°
2026-04-27 15:29 53.85817 103.54431 28694 ft 462 kts 156°
2026-04-27 15:30 53.83857 103.55807 28511 ft 460 kts 156°
2026-04-27 15:30 53.80909 103.57875 28236 ft 458 kts 156°
2026-04-27 15:30 53.77972 103.59933 27963 ft 456 kts 156°
2026-04-27 15:30 53.75056 103.61973 27698 ft 453 kts 156°
2026-04-27 15:31 53.72143 103.64008 27432 ft 451 kts 157°
2026-04-27 15:31 53.69251 103.66025 27171 ft 449 kts 157°
2026-04-27 15:31 53.66371 103.68031 26912 ft 447 kts 157°
2026-04-27 15:31 53.63500 103.70027 26652 ft 444 kts 157°
2026-04-27 15:32 53.60645 103.72010 26399 ft 442 kts 157°
2026-04-27 15:32 53.57805 103.73979 26143 ft 440 kts 157°
2026-04-27 15:32 53.54977 103.75936 25894 ft 438 kts 157°
2026-04-27 15:32 53.52198 103.77857 25653 ft 436 kts 157°
2026-04-27 15:33 53.49394 103.79793 25406 ft 435 kts 157°
2026-04-27 15:33 53.46598 103.81720 25161 ft 432 kts 157°
2026-04-27 15:33 53.43814 103.83636 24916 ft 430 kts 157°
2026-04-27 15:33 53.41047 103.85537 24673 ft 429 kts 157°
2026-04-27 15:34 53.38299 103.87463 24437 ft 427 kts 154°
2026-04-27 15:34 53.35686 103.89789 24198 ft 424 kts 150°
2026-04-27 15:34 53.33120 103.92215 23861 ft 424 kts 150°
2026-04-27 15:34 53.30548 103.94643 23117 ft 426 kts 150°
2026-04-27 15:35 53.27978 103.97059 22550 ft 420 kts 150°
2026-04-27 15:35 53.25446 103.99431 21931 ft 415 kts 150°
2026-04-27 15:35 53.22971 104.01743 21339 ft 410 kts 150°
2026-04-27 15:35 53.20843 104.03728 20820 ft 407 kts 150°
2026-04-27 15:36 53.18940 104.05501 20356 ft 404 kts 150°
2026-04-27 15:36 53.16499 104.07774 19759 ft 400 kts 150°
2026-04-27 15:36 53.14081 104.10021 19158 ft 397 kts 150°
2026-04-27 15:36 53.11677 104.12252 18568 ft 394 kts 150°
2026-04-27 15:37 53.09289 104.14463 17935 ft 391 kts 150°
2026-04-27 15:37 53.06921 104.16622 17346 ft 386 kts 151°
2026-04-27 15:37 53.04569 104.18749 16767 ft 382 kts 151°
2026-04-27 15:37 53.02238 104.20852 16182 ft 379 kts 151°
2026-04-27 15:38 52.99928 104.22937 15600 ft 376 kts 151°
2026-04-27 15:38 52.97639 104.25002 15037 ft 373 kts 151°
2026-04-27 15:38 52.95366 104.27053 14460 ft 371 kts 152°
2026-04-27 15:38 52.93108 104.29088 13886 ft 369 kts 152°
2026-04-27 15:39 52.90893 104.31083 13320 ft 365 kts 152°
2026-04-27 15:39 52.88666 104.33085 12745 ft 362 kts 152°
2026-04-27 15:39 52.86469 104.35058 12195 ft 358 kts 151°
2026-04-27 15:39 52.84283 104.37018 11633 ft 356 kts 151°
2026-04-27 15:40 52.82111 104.38964 11072 ft 353 kts 151°
2026-04-27 15:40 52.79957 104.40892 10523 ft 351 kts 151°
2026-04-27 15:40 52.77844 104.42782 10332 ft 337 kts 151°
2026-04-27 15:40 52.75729 104.44205 10189 ft 323 kts 169°
2026-04-27 15:41 52.73551 104.44210 10046 ft 308 kts 193°
2026-04-27 15:41 52.71596 104.42930 9697 ft 300 kts 208°
2026-04-27 15:41 52.69778 104.41284 9290 ft 297 kts 211°
2026-04-27 15:41 52.67991 104.39606 8871 ft 294 kts 211°
2026-04-27 15:42 52.66223 104.37976 8478 ft 289 kts 210°
2026-04-27 15:42 52.64473 104.36401 8226 ft 282 kts 209°
2026-04-27 15:42 52.62736 104.34865 8165 ft 287 kts 209°
2026-04-27 15:42 52.60973 104.33320 8095 ft 286 kts 209°
2026-04-27 15:43 52.59215 104.31784 7762 ft 287 kts 208°
2026-04-27 15:43 52.57480 104.30271 7408 ft 285 kts 208°
2026-04-27 15:43 52.55732 104.28748 7027 ft 283 kts 208°
2026-04-27 15:43 52.54010 104.27251 6769 ft 276 kts 208°
2026-04-27 15:44 52.52323 104.25786 6559 ft 275 kts 208°
2026-04-27 15:44 52.50631 104.24317 6356 ft 273 kts 208°
2026-04-27 15:44 52.48961 104.22868 6155 ft 270 kts 208°
2026-04-27 15:44 52.47302 104.21430 5971 ft 269 kts 207°
2026-04-27 15:45 52.45652 104.20003 5813 ft 264 kts 207°
2026-04-27 15:45 52.44057 104.18624 5721 ft 253 kts 207°
2026-04-27 15:45 52.42509 104.17394 5630 ft 241 kts 202°
2026-04-27 15:45 52.41002 104.16342 5540 ft 230 kts 203°
2026-04-27 15:46 52.39587 104.15346 5450 ft 218 kts 203°
2026-04-27 15:46 52.38204 104.14369 5268 ft 211 kts 203°
2026-04-27 15:46 52.36864 104.13422 4984 ft 209 kts 203°
2026-04-27 15:46 52.35509 104.12758 4712 ft 205 kts 181°
2026-04-27 15:47 52.34190 104.13351 4672 ft 192 kts 149°
2026-04-27 15:47 52.33254 104.14812 4658 ft 189 kts 129°
2026-04-27 15:47 52.32573 104.16664 4624 ft 187 kts 119°
2026-04-27 15:47 52.32044 104.18537 4418 ft 176 kts 117°
2026-04-27 15:48 52.31571 104.20342 4157 ft 169 kts 117°
2026-04-27 15:48 52.31119 104.22077 3905 ft 162 kts 117°
2026-04-27 15:48 52.30707 104.23664 3687 ft 142 kts 118°
2026-04-27 15:49 52.29988 104.26446 3286 ft 130 kts 120°
2026-04-27 15:49 52.29631 104.27785 3100 ft 129 kts 120°
2026-04-27 15:49 52.29269 104.29124 2904 ft 128 kts 119°
2026-04-27 15:49 52.28910 104.30453 2708 ft 127 kts 118°
2026-04-27 15:50 52.28622 104.31864 2376 ft 133 kts 111°
2026-04-27 15:50 52.28320 104.33302 2171 ft 136 kts 110°
2026-04-27 15:50 52.27982 104.34739 1949 ft 134 kts 114°
2026-04-27 15:50 52.27606 104.36111 1839 ft 132 kts 114°
2026-04-27 15:51 52.27233 104.37505 1682 ft 134 kts 114°
2026-04-27 15:51 52.26873 104.38838 1646 ft 117 kts 115°
2026-04-27 15:51 52.26616 104.39792 1662 ft 69 kts 112°
2026-04-27 15:51 52.26485 104.40308 1672 ft 32 kts 113°